Minden, LA

1:46 PM CDT on August 23, 2017 (GMT -0500)
Minden

Weather History for KMNE - November, 2013

Change the Weather History Date:

Saturday, November 2, 2013

  Actual Average (KBAD) Record (KBAD)
Temperature  
Mean Temperature 55 °F -  
Max Temperature 67 °F 68 °F 86 °F (2016)
Min Temperature 43 °F 48 °F 35 °F (2014)
Degree Days  
Heating Degree Days 10    
Growing Degree Days 5 (Base 50)    
Moisture  
Dew Point 44 °F    
Average Humidity 70    
Maximum Humidity 93    
Minimum Humidity 34    
Precipitation  
Precipitation 0.00 in - - ()
Sea Level Pressure  
Sea Level Pressure 30.13 in    
Wind  
Wind Speed 4 mph (NNW)    
Max Wind Speed 16 mph    
Max Gust Speed 24 mph    
Visibility 10 miles    
Events      
Averages and records for this station are not official NWS values.
T = Trace of Precipitation, MM = Missing Value Source: NWS Daily Summary

Daily Weather History Graph

Daily Weather History Graph

Search for Another Location

Airport or City:

Trip Planner

Search our weather history database for the weather conditions in past years. The results will help you decide how hot, cold, wet, or windy it might be!

Date:

Astronomy

Nov. 02, 2013 Rise Set
Actual Time 7:31 AM CDT 6:21 PM CDT
Civil Twilight 7:06 AM CDT 6:46 PM CDT
Nautical Twilight 6:37 AM CDT 7:15 PM CDT
Astronomical Twilight 6:08 AM CDT 7:44 PM CDT
Moon 6:32 AM CDT (11/2) 5:52 PM CDT (11/2)
Length of Visible Light 11h 40m
Length of Day
10h 49m
Waning Crescent, 1% of the Moon is Illuminated
Nov 2
Waning Crescent
Nov 3
New
Nov 9
First Quarter
Nov 17
Full
Nov 25
Last Quarter

Hourly Weather History & Observations

Time (CDT) Temp. Dew Point Humidity Pressure Visibility Wind Dir Wind Speed Gust Speed Precip Events Conditions
12:15 AM 55.6 °F 53.4 °F 92% 29.97 in 10.0 mi Calm Calm - N/A   Mostly Cloudy
12:35 AM 55.8 °F 53.4 °F 92% 29.97 in 10.0 mi Calm Calm - N/A   Mostly Cloudy
12:55 AM 55.6 °F 53.2 °F 92% 29.99 in 10.0 mi Calm Calm - N/A   Scattered Clouds
1:15 AM 56.3 °F 53.6 °F 91% 29.99 in 10.0 mi NNW 3.5 mph - N/A   Scattered Clouds
1:35 AM 56.8 °F 52.7 °F 86% 30.00 in 10.0 mi NNW 4.6 mph - N/A   Overcast
1:55 AM 57.0 °F 52.0 °F 83% 30.00 in 10.0 mi NNW 5.8 mph - N/A   Overcast
2:15 AM 57.4 °F 50.7 °F 78% 30.01 in 10.0 mi NNW 8.1 mph - N/A   Overcast
2:35 AM 57.0 °F 50.0 °F 77% 30.02 in 10.0 mi NNW 6.9 mph - N/A   Scattered Clouds
2:55 AM 56.3 °F 49.8 °F 79% 30.02 in 10.0 mi NNW 5.8 mph - N/A   Clear
3:15 AM 55.6 °F 49.5 °F 80% 30.02 in 10.0 mi NNW 5.8 mph - N/A   Clear
3:35 AM 54.9 °F 49.1 °F 81% 30.03 in 10.0 mi NW 4.6 mph - N/A   Clear
3:55 AM 54.1 °F 48.6 °F 81% 30.04 in 10.0 mi NW 4.6 mph - N/A   Clear
4:15 AM 53.6 °F 48.2 °F 82% 30.05 in 10.0 mi NNW 5.8 mph - N/A   Scattered Clouds
4:35 AM 53.6 °F 47.8 °F 81% 30.05 in 10.0 mi NNW 5.8 mph - N/A   Scattered Clouds
4:55 AM 52.7 °F 47.5 °F 82% 30.06 in 10.0 mi NNW 4.6 mph - N/A   Clear
5:15 AM 52.2 °F 47.3 °F 83% 30.07 in 10.0 mi NW 4.6 mph - N/A   Clear
5:35 AM 51.3 °F 46.8 °F 85% 30.08 in 10.0 mi NW 4.6 mph - N/A   Clear
5:55 AM 50.4 °F 46.6 °F 87% 30.09 in 10.0 mi NW 3.5 mph - N/A   Clear
6:15 AM 49.6 °F 46.0 °F 87% 30.09 in 10.0 mi NW 3.5 mph - N/A   Clear
6:35 AM 49.6 °F 46.0 °F 87% 30.10 in 10.0 mi NNW 3.5 mph - N/A   Clear
6:55 AM 50.0 °F 45.7 °F 85% 30.11 in 10.0 mi Calm Calm - N/A   Clear
7:15 AM 48.2 °F 45.3 °F 90% 30.12 in 10.0 mi Calm Calm - N/A   Clear
7:35 AM 47.3 °F 45.0 °F 92% 30.12 in 10.0 mi NNW 3.5 mph - N/A   Clear
7:55 AM 46.9 °F 44.6 °F 92% 30.13 in 10.0 mi Calm Calm - N/A   Clear
8:15 AM 49.3 °F 45.9 °F 88% 30.13 in 10.0 mi Calm Calm - N/A   Clear
8:35 AM 51.4 °F 46.6 °F 83% 30.15 in 10.0 mi NW 3.5 mph - N/A   Clear
8:55 AM 52.9 °F 46.6 °F 79% 30.16 in 10.0 mi WNW 4.6 mph - N/A   Clear
9:15 AM 54.5 °F 46.6 °F 75% 30.16 in 10.0 mi NW 4.6 mph - N/A   Clear
9:35 AM 56.7 °F 46.9 °F 70% 30.17 in 10.0 mi WNW 3.5 mph - N/A   Clear
9:55 AM 58.5 °F 47.1 °F 66% 30.17 in 10.0 mi NW 8.1 mph - N/A   Clear
10:15 AM 60.1 °F 46.4 °F 61% 30.18 in 10.0 mi NNW 8.1 mph - N/A   Clear
10:35 AM 61.3 °F 45.5 °F 56% 30.19 in 10.0 mi NW 10.4 mph 16.1 mph N/A   Clear
10:55 AM 63.0 °F 43.9 °F 50% 30.18 in 10.0 mi NW 11.5 mph 17.3 mph N/A   Clear
12:15 PM 64.4 °F 38.8 °F 39% 30.18 in 10.0 mi NNW 11.5 mph 20.7 mph N/A   Clear
12:35 PM 65.3 °F 39.2 °F 38% 30.18 in 10.0 mi NW 11.5 mph 18.4 mph N/A   Clear
12:55 PM 65.3 °F 37.4 °F 36% 30.17 in 10.0 mi North 11.5 mph 18.4 mph N/A   Clear
1:15 PM 65.7 °F 37.9 °F 36% 30.17 in 10.0 mi NNW 10.4 mph - N/A   Clear
1:35 PM 65.8 °F 36.9 °F 34% 30.16 in 10.0 mi NNW 13.8 mph 21.9 mph N/A   Clear
1:55 PM 66.0 °F 37.8 °F 35% 30.16 in 10.0 mi NNW 10.4 mph - N/A   Clear
2:15 PM 66.4 °F 38.7 °F 36% 30.15 in 10.0 mi NNW 11.5 mph - N/A   Clear
2:35 PM 66.4 °F 38.7 °F 36% 30.15 in 10.0 mi NNW 10.4 mph 19.6 mph N/A   Clear
2:55 PM 65.5 °F 38.7 °F 37% 30.15 in 10.0 mi NW 9.2 mph - N/A   Clear
3:15 PM 65.8 °F 39.0 °F 37% 30.14 in 10.0 mi NNW 16.1 mph 24.2 mph N/A   Clear
3:35 PM 65.7 °F 38.5 °F 37% 30.14 in 10.0 mi North 11.5 mph 18.4 mph N/A   Clear
3:55 PM 65.1 °F 39.0 °F 38% 30.14 in 10.0 mi NNW 6.9 mph 19.6 mph N/A   Clear
4:15 PM 65.3 °F 38.1 °F 37% 30.14 in 10.0 mi NNW 15.0 mph 20.7 mph N/A   Clear
4:35 PM 64.6 °F 38.8 °F 39% 30.14 in 10.0 mi NW 9.2 mph - N/A   Clear
4:55 PM 64.2 °F 38.7 °F 39% 30.14 in 10.0 mi North 13.8 mph 19.6 mph N/A   Clear
5:15 PM 63.5 °F 37.9 °F 39% 30.15 in 10.0 mi NNW 10.4 mph 17.3 mph N/A   Clear
5:35 PM 62.2 °F 37.8 °F 40% 30.15 in 10.0 mi NNW 8.1 mph - N/A   Clear
5:55 PM 61.0 °F 39.0 °F 44% 30.16 in 10.0 mi NNW 5.8 mph - N/A   Clear
6:15 PM 58.5 °F 40.8 °F 52% 30.17 in 10.0 mi NNW 4.6 mph - N/A   Clear
6:35 PM 56.5 °F 41.7 °F 58% 30.17 in 10.0 mi Calm Calm - N/A   Clear
6:55 PM 53.8 °F 44.1 °F 70% 30.17 in 10.0 mi Calm Calm - N/A   Clear
7:15 PM 52.2 °F 43.7 °F 73% 30.18 in 10.0 mi Calm Calm - N/A   Clear
7:35 PM 51.1 °F 44.6 °F 78% 30.19 in 10.0 mi Calm Calm - N/A   Clear
7:55 PM 50.4 °F 45.1 °F 82% 30.20 in 10.0 mi Calm Calm - N/A   Clear
8:15 PM 48.9 °F 44.6 °F 85% 30.20 in 10.0 mi Calm Calm - N/A   Clear
8:35 PM 48.2 °F 44.8 °F 88% 30.21 in 10.0 mi Calm Calm - N/A   Clear
8:55 PM 47.1 °F 44.6 °F 91% 30.22 in 10.0 mi Calm Calm - N/A   Clear
9:15 PM 46.6 °F 43.7 °F 90% 30.23 in 10.0 mi Calm Calm - N/A   Clear
9:35 PM 46.4 °F 43.9 °F 91% 30.23 in 10.0 mi Calm Calm - N/A   Clear
9:55 PM 45.5 °F 43.2 °F 92% 30.23 in 10.0 mi Calm Calm - N/A   Clear
10:15 PM 45.9 °F 43.3 °F 91% 30.24 in 10.0 mi Calm Calm - N/A   Clear
10:35 PM 45.5 °F 43.0 °F 91% 30.24 in 10.0 mi Calm Calm - N/A   Clear
10:55 PM 44.8 °F 42.6 °F 92% 30.24 in 10.0 mi Calm Calm - N/A   Clear
11:15 PM 44.8 °F 42.8 °F 93% 30.24 in 10.0 mi Calm Calm - N/A   Clear
11:35 PM 44.1 °F 42.1 °F 93% 30.24 in 10.0 mi Calm Calm - N/A   Clear
11:55 PM 43.7 °F 41.7 °F 93% 30.23 in 10.0 mi Calm Calm - N/A   Clear